This demonstration page uses our WeatherBlox Daily Observations layout. Learn more.

Left ArrowRight Arrow

Hourly Observations for February 18, 2015

Temp ( °F °C ) Dew Point ( °F °C ) Humidity (%) Winds ( mph kmh ) Pressure ( in mb ) Visibility ( mi km ) Precip ( " mm )
12:53 am 00:53 Cloudy 21 -6.1 13 -10.6 71 71 WSW 7 11 29.95 1014 10 16.0934 N/A
1:53 am 01:53 Cloudy with Light Snow 21 -6.1 14 -10 74 74 WSW 6 9 29.93 1014 4 6.43736 N/A
2:02 am 02:02 Cloudy with Light Snow 20 -6.7 14 -10 78 78 WSW 7 11 29.97 1015 1.75 2.816345 N/A
2:07 am 02:07 Cloudy with Light Snow 20 -6.7 15 -9.4 81 81 WSW 7 11 29.97 1015 1.5 2.41401 N/A
2:23 am 02:23 Cloudy with Light Snow 20 -6.7 16 -8.9 85 85 WNW 5 7 29.97 1015 2 3.21868 N/A
2:39 am 02:39 Cloudy with Light Snow 20 -6.7 16 -8.9 85 85 WNW 5 7 29.94 1014 1.75 2.816345 0.01 0.254
2:48 am 02:48 Cloudy with Light Snow 19 -7 16 -9 86 86 WNW 5 7 29.94 1014 2.5 4.02335 0.01 0.254
2:53 am 02:53 Cloudy with Light Snow 19 -7.2 16 -8.9 88 88 N N/A 29.9 1013 3 4.82802 0.01 0.254
3:39 am 03:39 Cloudy with Light Snow 19 -7.2 15 -9.4 84 84 N N/A 29.91 1013 2.5 4.02335 N/A
3:46 am 03:46 Cloudy with Light Snow 19 -7.2 15 -9.4 84 84 N 3 6 29.88 1012 1.5 2.41401 N/A
3:53 am 03:53 Cloudy with Light Snow 19 -7.2 15 -9.4 84 84 N 3 6 29.86 1011 1.75 2.816345 N/A
4:09 am 04:09 Cloudy with Light Snow 19 -7.2 16 -8.9 88 88 NNW 3 6 29.88 1012 1.25 2.011675 N/A
4:53 am 04:53 Cloudy with Light Snow 18 -7.8 14 -10 84 84 NNE 8 13 29.85 1011 1.25 2.011675 0.01 0.254
5:04 am 05:04 Cloudy with Light Snow 18 -7.8 14 -10 84 84 N 8 13 29.88 1012 1.75 2.816345 N/A
5:12 am 05:12 Mostly Cloudy with Light Snow 17 -8.3 13 -10.6 84 84 N 8 13 29.88 1012 1 1.60934 N/A
5:53 am 05:53 Mostly Cloudy with Light Snow 17 -8.3 13 -10.6 84 84 N 6 9 29.85 1011 1 1.60934 0.01 0.254
6:01 am 06:01 Mostly Cloudy with Light Snow 17 -8.3 13 -10.6 84 84 N 3 6 29.88 1012 0.75 1.207005 N/A
6:21 am 06:21 Mostly Cloudy with Light Snow 17 -8.3 13 -10.6 84 84 N 5 7 29.85 1011 1 1.60934 0.01 0.254
6:53 am 06:53 Mostly Cloudy with Light Snow 16 -8.9 13 -10.6 88 88 NNW 10 17 29.85 1011 1 1.60934 0.02 0.508
7:18 am 07:18 Mostly Cloudy with Light Snow 16 -8.9 12 -11.1 84 84 N 7 11 29.88 1012 1 1.60934 N/A
7:27 am 07:27 Mostly Cloudy with Light Snow 16 -8.9 12 -11.1 84 84 N 5 7 29.88 1012 1 1.60934 0.01 0.254
7:53 am 07:53 Cloudy with Light Snow 16 -8.9 13 -10.6 88 88 NW 5 7 29.86 1011 1.25 2.011675 0.02 0.508
8:01 am 08:01 Cloudy with Light Snow 16 -8.9 13 -10.6 88 88 NW 6 9 29.88 1012 1.75 2.816345 N/A
8:09 am 08:09 Cloudy with Light Snow 16 -8.9 12 -11.1 84 84 NW 6 9 29.88 1012 2 3.21868 N/A
8:19 am 08:19 Cloudy with Light Snow 16 -8.9 12 -11.1 84 84 NNW 6 9 29.91 1013 1.5 2.41401 N/A
8:34 am 08:34 Mostly Cloudy with Light Snow 16 -8.9 13 -10.6 88 88 NW 8 13 29.91 1013 0.75 1.207005 N/A
8:42 am 08:42 Mostly Cloudy with Snow 16 -8.9 12 -11.1 84 84 NW 12 19 29.94 1014 0.5 0.80467 N/A
8:53 am 08:53 Mostly Cloudy with Light Snow 16 -8.9 11 -11.7 80 80 WNW 15 24 29.91 1013 0.75 1.207005 N/A
9:01 am 09:01 Mostly Cloudy with Light Snow 15 -9.4 9 -12.8 77 77 NNW 15 24 29.94 1014 1 1.60934 N/A
9:06 am 09:06 Cloudy with Light Snow 15 -9.4 9 -12.8 77 77 NNW 10 17 29.94 1014 0.75 1.207005 N/A
9:16 am 09:16 Mostly Cloudy with Light Snow 15 -9.4 10 -12.2 80 80 WNW 9 15 29.94 1014 1 1.60934 N/A
9:22 am 09:22 Cloudy with Light Snow 15 -9.4 9 -12.8 77 77 WNW 12 19 29.94 1014 3 4.82802 N/A
9:39 am 09:39 Cloudy 14 -10 5 -15 67 67 WNW 15 24 29.97 1015 10 16.0934 N/A
9:53 am 09:53 Cloudy with Light Snow 15 -9.4 6 -14.4 67 67 WNW 10 17 29.93 1013 8 12.87472 N/A
10:53 am 10:53 Mostly Sunny 15 -9.4 N/A 51 51 WNW 13 20 29.94 1014 10 16.0934 N/A
11:53 am 11:53 Sunny 15 -9.4 1 -17.2 53 53 WNW 15 24 29.97 1015 9 14.48406 N/A
12:53 pm 12:53 Mostly Cloudy 16 -8.9 1 -17.2 51 51 WNW 16 26 29.99 1016 10 16.0934 N/A
1:53 pm 13:53 Cloudy 16 -8.9 6 -14.4 65 65 WNW 13 20 30 1016 9 14.48406 N/A
2:53 pm 14:53 Cloudy with Light Snow 15 -9.4 -2 -18.9 46 46 W 15 24 30.03 1017 7 11.26538 N/A
3:53 pm 15:53 Partly Cloudy 15 -9.4 -1 -18.3 49 49 W 20 31 30.07 1018 8 12.87472 N/A
4:02 pm 16:02 Mostly Cloudy with Light Snow 14 -10 3 -16.1 61 61 WNW 18 30 30.12 1020 1.5 2.41401 N/A
4:10 pm 16:10 Mostly Cloudy with Light Snow 14 -10 N/A 53 53 WNW 17 28 30.12 1020 2 3.21868 N/A
4:30 pm 16:30 Mostly Cloudy with Haze 14 -10 2 -16.7 58 58 NW 22 35 30.15 1021 5 8.0467 N/A
4:40 pm 16:40 Mostly Cloudy with Light Snow 13 -10.6 4 -15.6 67 67 WNW 13 20 30.15 1021 2.5 4.02335 N/A
4:53 pm 16:53 Cloudy 13 -10.6 -1 -18.3 54 54 WNW 14 22 30.09 1019 7 11.26538 N/A
5:53 pm 17:53 Mostly Cloudy 12 -11.1 -1 -18.3 56 56 WNW 16 26 30.12 1020 10 16.0934 N/A
6:29 pm 18:29 Mostly Cloudy 10 -12.2 1 -17.2 67 67 WNW 15 24 30.18 1022 8 12.87472 N/A
6:36 pm 18:36 Mostly Clear 10 -12.2 1 -17.2 67 67 WNW 16 26 30.18 1022 10 16.0934 N/A
6:49 pm 18:49 Mostly Cloudy with Light Snow 10 -12 1 -17 67 67 WNW 14 22 30.18 1022 6 9.65604 N/A
6:53 pm 18:53 Partly Cloudy with Scattered Snow Showers 10 -12.2 1 -17.2 67 67 WNW 15 24 30.16 1021 7 11.26538 N/A
7:53 pm 19:53 Partly Cloudy 8 -13.3 -1 -18.3 66 66 W 9 15 30.19 1022 10 16.0934 N/A
8:53 pm 20:53 Clear 6 -14.4 -3 -19.4 66 66 W 9 15 30.21 1023 10 16.0934 N/A
9:53 pm 21:53 Mostly Clear 5 -15 -3 -19.4 69 69 W 7 11 30.24 1024 10 16.0934 N/A
10:53 pm 22:53 Clear 4 -15.6 -5 -20.6 66 66 W 9 15 30.24 1024 10 16.0934 N/A
11:53 pm 23:53 Clear 3 -16.1 -8 -22.2 60 60 WNW 8 13 30.25 1025 10 16.0934 N/A

Powered by AerisWeather